User: anonymous   Login
Location: Oronoko Observatory
(41.9167°N, 86.3833°W)
Time: 21:58:06
(UTC-05:00)
Language:

PAYLOAD A - Orbit

View from above orbital plane
View from above orbital plane
View from above satellite
View from above satellite

Ground track
Ground track

The orbit data is extracted from the following two-line orbital elements,

1 27840U 03031A   18051.00087364 -.00000011  00000-0  96957-5 0  9995
2 27840  98.2237  43.0415 0099478  92.1702 269.0882 14.38897969768953
Epoch (UTC): 20 February 2018 00:01:15
Eccentricity: 0.0099478
inclination: 98.2237°
perigee height: 691 km
apogee height: 833 km
right ascension of ascending node: 43.0415°
argument of perigee: 92.1702°
revolutions per day: 14.38897969
mean anomaly at epoch: 269.0882°
orbit number at epoch: 76895

The dashed part of the orbit path shows where the satellite is in the earth's shadow,  

DLR